User: anonymous   Login
Location: Bridgewater
(44.3670°N, 64.5170°W)
Time: 00:30:59
(UTC-03:00)
Language:

OPAL - Orbit

View from above orbital plane
View from above orbital plane
View from above satellite
View from above satellite

Ground track
Ground track

The orbit data is extracted from the following two-line orbital elements,

1 26063U 00004C   16211.83536931 -.00000011  00000-0  16235-4 0  9994
2 26063 100.1899 150.0196 0036957 136.4326 223.9784 14.36625364865097
Epoch (UTC): 29 July 2016 20:02:55
Eccentricity: 0.0036957
inclination: 100.1899°
perigee height: 743 km
apogee height: 796 km
right ascension of ascending node: 150.0196°
argument of perigee: 136.4326°
revolutions per day: 14.36625364
mean anomaly at epoch: 223.9784°
orbit number at epoch: 86509

The dashed part of the orbit path shows where the satellite is in the earth's shadow,  

DLR